{"data":{"norad_id":62211,"intl_designator":"2024-229V","name":"STARLINK-32642","alt_names":[],"object_type":"PAYLOAD","status":"ACTIVE","operator":null,"country":"US","launch_date":"2024-12-04","launch_site_code":"AFETR","launch_vehicle":null,"mission":null,"orbit_class":"UNKNOWN","rcs_meters":null,"size_class":null,"mass_kg":null,"dimensions":null,"purposes":["comms"],"wikipedia_slug":null,"has_3d_model":false,"image_url":null,"decayed_at":null,"tle_current":{"epoch":"2026-05-25T04:32:51.378720Z","epoch_age_seconds":58696,"freshness":"FRESH","line1":"1 62211U 24229V   26145.18948355  .00012174  00000+0  45107-3 0  9996","line2":"2 62211  42.9999 198.4606 0001018 277.0885  82.9851 15.27588964 82263","mean_motion":15.27588964,"eccentricity":0.0001018,"inclination_deg":42.9999,"raan_deg":198.4606,"arg_perigee_deg":277.0885,"mean_anomaly_deg":82.9851,"bstar":0.00045107,"rev_number":8226,"period_min":94.266195549708,"perigee_km":482.32378871799,"apogee_km":483.72072074226,"semimajor_km":6861.1592547301,"source":"CELESTRAK","updated_at":"2026-05-25T13:38:19.610320Z"}}}